Date String (YYYY-MM-DD hh:mm:ss) UTC,Instrument flags,Ambient pressure (hPa),Sample flow (lpm),Bypass flow (lpm),Sample temperature (°C),Ambient temperature (°C),ASC tube jacket temperature (°C),LED temperature (°C),Box temperature (°C),Sample RH (%),Span deviation,Mass concentration (μg/m³),Mass concentration (μg/m³),Mass concentration (μg/m³)
DateTimeUTC,F1_M11,P_M11,Q1_M11,Q2_M11,T1_M11,T2_M11,T3_M11,T4_M11,T5_M11,U1_M11,ZSPAN_M11,X0_M11,X2_M11,X1_M11
2022-11-25 03:00:00,,0835.9,5.00,0.00,22.4,20.8,00.0,31.5,23.9,12.6,0000.0,0001.86,0001.31,0001.15
2022-11-25 03:01:00,,0835.9,5.00,0.00,22.3,20.8,00.0,31.4,23.9,12.6,0000.0,0001.87,0001.30,0001.14
2022-11-25 03:02:00,,0835.9,5.00,0.00,22.3,20.8,00.0,31.4,23.8,12.6,0000.0,0001.87,0001.29,0001.14
2022-11-25 03:03:00,,0835.9,5.00,0.00,22.3,20.8,00.0,31.4,23.8,12.6,0000.0,0002.47,0001.30,0001.14
2022-11-25 03:04:00,,0836.0,5.00,0.00,22.3,20.8,00.0,31.4,23.8,12.6,0000.0,0002.59,0001.31,0001.16
2022-11-25 03:05:00,,0836.0,5.01,0.00,22.3,20.7,00.0,31.4,23.8,12.6,0000.0,0002.59,0001.32,0001.17
2022-11-25 03:06:00,,0836.0,4.99,0.00,22.2,20.7,00.0,31.4,23.8,12.6,0000.0,0002.64,0001.32,0001.18
2022-11-25 03:07:00,,0836.0,5.01,0.00,22.2,20.7,00.0,31.3,23.7,12.6,0000.0,0002.94,0001.35,0001.19
2022-11-25 03:08:00,,0836.0,5.00,0.00,22.2,20.7,00.0,31.3,23.8,12.7,0000.0,0002.95,0001.35,0001.19
2022-11-25 03:09:00,,0836.0,4.99,0.00,22.2,20.7,00.0,31.3,23.8,12.6,0000.0,0002.94,0001.34,0001.20
2022-11-25 03:10:00,,0836.0,5.01,0.00,22.2,20.7,00.0,31.3,23.7,12.6,0000.0,0002.98,0001.37,0001.21
2022-11-25 03:11:00,,0836.0,5.00,0.00,22.2,20.7,00.0,31.3,23.7,12.6,0000.0,0002.94,0001.36,0001.21
2022-11-25 03:12:00,,0836.0,4.99,0.00,22.2,20.6,00.0,31.3,23.7,12.6,0000.0,0002.93,0001.35,0001.20
2022-11-25 03:13:00,,0836.0,4.99,0.00,22.1,20.6,00.0,31.3,23.7,12.6,0000.0,0002.92,0001.34,0001.19
2022-11-25 03:14:00,,0835.9,5.01,0.00,22.1,20.6,00.0,31.3,23.7,12.6,0000.0,0002.45,0001.33,0001.18
2022-11-25 03:15:00,,0835.9,5.01,0.00,22.1,20.6,00.0,31.3,23.8,12.6,0000.0,0002.07,0001.32,0001.18
2022-11-25 03:16:00,,0835.9,5.01,0.00,22.1,20.6,00.0,31.2,23.7,12.6,0000.0,0002.03,0001.30,0001.17
2022-11-25 03:17:00,,0835.9,5.00,0.00,22.1,20.6,00.0,31.2,23.7,12.6,0000.0,0002.00,0001.29,0001.16
2022-11-25 03:18:00,,0835.9,5.00,0.00,22.1,20.6,00.0,31.2,23.7,12.6,0000.0,0001.76,0001.28,0001.14
2022-11-25 03:19:00,,0835.9,4.99,0.00,22.1,20.6,00.0,31.2,23.7,12.6,0000.0,0001.78,0001.30,0001.14
2022-11-25 03:20:00,,0836.0,5.00,0.00,22.1,20.6,00.0,31.2,23.7,12.6,0000.0,0001.81,0001.31,0001.14
2022-11-25 03:21:00,,0836.0,5.00,0.00,22.1,20.6,00.0,31.2,23.7,12.6,0000.0,0001.74,0001.28,0001.12
2022-11-25 03:22:00,,0836.0,5.03,0.00,22.1,20.6,00.0,31.2,23.7,12.6,0000.0,0001.75,0001.28,0001.12
2022-11-25 03:23:00,,0836.0,4.97,0.00,22.1,20.6,00.0,31.1,23.6,12.6,0000.0,0001.72,0001.28,0001.12
2022-11-25 03:24:00,,0836.0,5.00,0.00,22.0,20.6,00.0,31.1,23.6,12.6,0000.0,0001.70,0001.28,0001.13
2022-11-25 03:25:00,,0836.0,5.00,0.00,22.0,20.6,00.0,31.1,23.6,12.6,0000.0,0001.67,0001.27,0001.14
2022-11-25 03:26:00,,0836.0,5.00,0.00,22.0,20.5,00.0,31.1,23.6,12.6,0000.0,0001.69,0001.28,0001.13
2022-11-25 03:27:00,,0836.0,5.00,0.00,22.0,20.5,00.0,31.1,23.6,12.6,0000.0,0001.70,0001.28,0001.13
2022-11-25 03:28:00,,0836.0,5.00,0.00,22.0,20.5,00.0,31.1,23.6,12.6,0000.0,0001.72,0001.29,0001.12
2022-11-25 03:29:00,,0836.0,5.01,0.00,22.0,20.5,00.0,31.1,23.5,12.6,0000.0,0001.69,0001.26,0001.12
2022-11-25 03:30:00,,0836.0,5.01,0.00,22.0,20.5,00.0,31.1,23.6,12.6,0000.0,0001.62,0001.24,0001.11
2022-11-25 03:31:00,,0836.0,4.99,0.00,22.0,20.5,00.0,31.1,23.6,12.6,0000.0,0001.63,0001.22,0001.11
2022-11-25 03:32:00,,0836.0,5.00,0.00,22.0,20.4,00.0,31.1,23.6,12.6,0000.0,0001.71,0001.24,0001.11
2022-11-25 03:33:00,,0836.0,5.02,0.00,22.0,20.4,00.0,31.1,23.6,12.6,0000.0,0001.70,0001.24,0001.11
2022-11-25 03:34:00,,0836.1,5.00,0.00,21.9,20.4,00.0,31.0,23.5,12.6,0000.0,0001.71,0001.24,0001.10
2022-11-25 03:35:00,,0836.1,4.99,0.00,21.9,20.4,00.0,31.0,23.4,12.6,0000.0,0001.72,0001.23,0001.09
2022-11-25 03:36:00,,0836.1,4.99,0.00,21.9,20.4,00.0,31.0,23.5,12.6,0000.0,0001.72,0001.23,0001.08
2022-11-25 03:37:00,,0836.0,5.00,0.00,21.9,20.3,00.0,31.0,23.4,12.6,0000.0,0001.74,0001.23,0001.07
2022-11-25 03:38:00,,0836.0,5.00,0.00,21.9,20.3,00.0,31.0,23.4,12.6,0000.0,0001.75,0001.23,0001.07
2022-11-25 03:39:00,,0836.0,5.00,0.00,21.9,20.3,00.0,31.0,23.4,12.7,0000.0,0001.75,0001.23,0001.07
2022-11-25 03:40:00,,0836.0,5.00,0.00,21.9,20.3,00.0,31.0,23.5,12.7,0000.0,0001.74,0001.24,0001.07
2022-11-25 03:41:00,,0836.0,5.00,0.00,21.8,20.3,00.0,30.9,23.5,12.7,0000.0,0001.89,0001.25,0001.07
2022-11-25 03:42:00,,0836.0,5.00,0.00,21.8,20.3,00.0,30.9,23.4,12.7,0000.0,0001.84,0001.22,0001.07
2022-11-25 03:43:00,,0836.0,5.01,0.00,21.8,20.3,00.0,30.9,23.4,12.7,0000.0,0001.85,0001.22,0001.06
2022-11-25 03:44:00,,0836.0,5.00,0.00,21.8,20.3,00.0,30.9,23.3,12.7,0000.0,0001.86,0001.23,0001.05
2022-11-25 03:45:00,,0835.9,5.00,0.00,21.8,20.3,00.0,30.9,23.3,12.7,0000.0,0001.85,0001.22,0001.05
2022-11-25 03:46:00,,0836.0,5.00,0.00,21.8,20.3,00.0,30.9,23.3,12.7,0000.0,0001.85,0001.23,0001.06
2022-11-25 03:47:00,,0836.0,5.00,0.00,21.8,20.2,00.0,30.9,23.3,12.7,0000.0,0001.86,0001.23,0001.06
2022-11-25 03:48:00,,0836.0,5.00,0.00,21.7,20.3,00.0,30.8,23.3,12.7,0000.0,0001.87,0001.23,0001.06
2022-11-25 03:49:00,,0836.0,4.99,0.00,21.7,20.3,00.0,30.8,23.3,12.7,0000.0,0001.86,0001.23,0001.07
2022-11-25 03:50:00,,0836.0,5.00,0.00,21.7,20.3,00.0,30.8,23.3,12.7,0000.0,0001.87,0001.23,0001.08
2022-11-25 03:51:00,,0836.0,5.00,0.00,21.7,20.2,00.0,30.8,23.3,12.7,0000.0,0001.88,0001.22,0001.07
2022-11-25 03:52:00,,0836.0,5.00,0.00,21.7,20.2,00.0,30.8,23.3,12.7,0000.0,0002.13,0001.21,0001.07
2022-11-25 03:53:00,,0836.0,5.00,0.00,21.7,20.2,00.0,30.8,23.3,12.7,0000.0,0002.97,0001.22,0001.08
2022-11-25 03:54:00,,0836.0,5.00,0.00,21.7,20.2,00.0,30.8,23.3,12.7,0000.0,0002.96,0001.22,0001.08
2022-11-25 03:55:00,,0836.0,5.00,0.00,21.7,20.2,00.0,30.8,23.3,12.7,0000.0,0002.98,0001.22,0001.09
2022-11-25 03:56:00,,0835.9,4.99,0.00,21.7,20.2,00.0,30.8,23.2,12.7,0000.0,0002.99,0001.23,0001.09
2022-11-25 03:57:00,,0835.9,5.00,0.00,21.6,20.2,00.0,30.8,23.2,12.7,0000.0,0003.01,0001.24,0001.10
2022-11-25 03:58:00,,0836.0,5.01,0.00,21.6,20.2,00.0,30.7,23.2,12.7,0000.0,0003.09,0001.25,0001.11
2022-11-25 03:59:00,,0836.0,5.01,0.00,21.6,20.1,00.0,30.7,23.2,12.7,0000.0,0003.17,0001.28,0001.13
